Flight Track Log - Related Links

Times and Time Zones

All times are in EDT time to prevent confusion due to time zone crossing. See the FLG4262 flight status page for this flight to view local times or setup timezone preferences in your user account.

Time Position Orientation Groundspeed Altitude Reporting Facility
EDT Latitude Longitude Course Direction KTS MPH feet Rate Location/Type
05:28PM 42.1139 -76.0097 261° West 146 168 7,500  Level New York Center
05:29PM 42.1406 -76.1097 290° West 173 199 9,500 1,750 Climbing New York Center
05:30PM 42.1294 -76.2181 262° West 247 284 11,000 1,200 Climbing New York Center
05:31PM 42.1133 -76.3425 260° West 301 346 11,900 1,100 Climbing New York Center
05:32PM 42.1531 -76.4689 293° West 340 391 13,200 1,000 Climbing New York Center
05:33PM 42.1972 -76.5903 296° West 351 404 13,900 448 Climbing New York Center
05:34PM 42.2567 -76.7414 298° West 368 423 14,200 706 Climbing Cleveland Center
05:35PM 42.3039 -76.8703 296° West 382 440 15,500 1,210 Climbing Cleveland Center
05:36PM 42.3506 -76.9994 296° West 383 441 16,700 1,258 Climbing Cleveland Center
05:37PM 42.4069 -77.1550 296° West 385 443 18,100 1,161 Climbing Cleveland Center
05:38PM 42.4550 -77.2875 296° West 389 448 19,100 968 Climbing Cleveland Center
05:39PM 42.5019 -77.4200 296° West 391 450 20,100 960 Climbing Cleveland Center
05:40PM 42.5500 -77.5550 296° West 390 449 21,100 1,104 Climbing Cleveland Center
05:41PM 42.5961 -77.6850 296° West 386 444 22,400 1,016 Climbing Cleveland Center
05:42PM 42.6453 -77.8236 296° West 383 441 23,200 726 Climbing Cleveland Center
05:43PM 42.6928 -77.9583 296° West 390 449 23,900 629 Climbing Cleveland Center
05:44PM 42.7231 -78.1031 286° West 406 467 24,500 581 Climbing Cleveland Center
05:45PM 42.7275 -78.2839 272° West 402 463 25,100 532 Climbing Cleveland Center
05:46PM 42.7311 -78.4375 272° West 408 470 25,600 435 Climbing Cleveland Center
05:47PM 42.7339 -78.5931 271° West 412 474 26,000 194 Climbing Cleveland Center
05:48PM 42.7381 -78.7478 272° West 410 472 26,000  Level Cleveland Center
05:49PM 42.7397 -78.8925 271° West 387 445 26,000  Level Cleveland Center
05:50PM 42.7428 -79.0339 272° West 377 434 26,000  Level Cleveland Center
05:52PM 42.7444 -79.2075 271° West 386 444 26,000  Level Cleveland Center
05:53PM 42.7456 -79.3519 271° West 383 441 26,000  Level Cleveland Center
05:54PM 42.7481 -79.4961 271° West 383 441 26,000  Level Cleveland Center
05:55PM 42.7481 -79.6483 270° West 399 459 26,000  Level Cleveland Center
05:56PM 42.7500 -79.8014 271° West 407 468 26,000  Level Cleveland Center
05:57PM 42.7444 -79.9767 268° West 409 471 26,000  Level Cleveland Center
05:58PM 42.7383 -80.1339 267° West 412 474 26,000  Level Cleveland Center
05:59PM 42.7333 -80.2897 268° West 412 474 26,000  Level Cleveland Center
06:00PM 42.7264 -80.4425 267° West 405 466 26,000  Level Cleveland Center
06:01PM 42.7181 -80.5911 266° West 398 458 26,000 -387 Level Cleveland Center
06:02PM 42.7119 -80.7667 267° West 401 461 25,200 -726 Descending Cleveland Center
06:03PM 42.7044 -80.9161 266° West 396 456 24,500 -581 Descending Cleveland Center
06:04PM 42.6861 -81.0597 260° West 387 445 24,000 -242 Descending Cleveland Center
06:05PM 42.6692 -81.2064 261° West 389 448 24,000  Level Cleveland Center
06:06PM 42.6525 -81.3533 261° West 390 449 24,000  Level Cleveland Center
06:07PM 42.6356 -81.4983 261° West 388 447 24,000  Level Cleveland Center
06:08PM 42.6183 -81.6442 261° West 390 449 24,000 -145 Level Cleveland Center
06:09PM 42.6003 -81.7986 261° West 389 448 23,700 -1,306 Descending Cleveland Center
06:10PM 42.5825 -81.9425 261° West 389 448 21,300 -2,323 Descending Cleveland Center
06:11PM 42.5664 -82.0789 261° West 372 428 18,900 -2,547 Descending Cleveland Center
06:12PM 42.5525 -82.2014 261° West 360 414 16,800 -2,710 Descending Cleveland Center
06:12PM 42.5472 -82.2372 259° West 359 413 16,100 -2,449 Descending Cleveland Center
06:13PM 42.5411 -82.3075 263° West 343 395 14,800 -2,323 Descending Cleveland Center
06:13PM 42.5311 -82.3619 256° West 345 397 13,700 -1,967 Descending Cleveland Center
06:14PM 42.5244 -82.4297 262° West 322 371 12,800 -1,452 Descending Cleveland Center
06:14PM 42.5164 -82.4789 257° West 324 373 12,200 -787 Descending Cleveland Center
06:15PM 42.5106 -82.5383 262° West 273 314 12,000 -194 Descending Cleveland Center
06:15PM 42.4978 -82.5736 244° Southwest 271 312 12,000 97 Level Cleveland Center
06:16PM 42.4814 -82.6253 247° West 231 266 12,100 97 Climbing Cleveland Center
06:16PM 42.4689 -82.6531 239° Southwest 241 277 12,100  Level Cleveland Center
06:17PM 42.4506 -82.7058 245° Southwest 240 276 12,100 -97 Level Cleveland Center
06:17PM 42.4339 -82.7503 243° Southwest 239 275 12,000 -98 Descending Cleveland Center
06:18PM 42.4214 -82.7897 247° West 240 276 12,000  Level Cleveland Center
06:18PM 42.4047 -82.8322 242° Southwest 241 277 12,000 97 Level Cleveland Center
06:19PM 42.3922 -82.8733 248° West 238 274 12,100  Climbing Cleveland Center
06:19PM 42.3764 -82.9125 241° Southwest 238 274 12,000  Descending Cleveland Center
06:20PM 42.3631 -82.9542 247° West 238 274 12,100  Climbing Cleveland Center
06:21PM 42.3475 -82.9931 242° Southwest 238 274 12,000  Descending Cleveland Center
06:21PM 42.3342 -83.0350 247° West 241 277 12,100  Climbing Cleveland Center
06:22PM 42.3208 -83.0756 246° West 240 276 12,000  Descending Cleveland Center
06:22PM 42.3128 -83.1225 257° West 244 281 12,100  Climbing Cleveland Center
06:23PM 42.3028 -83.1619 251° West 240 276 12,000 -98 Descending Cleveland Center
06:23PM 42.2933 -83.2131 256° West 234 269 12,000 -387 Level Cleveland Center
06:24PM 42.2806 -83.2594 250° West 233 268 11,600 -774 Descending Cleveland Center
06:24PM 42.2744 -83.2978 258° West 230 265 11,200 -484 Descending Cleveland Center
06:25PM 42.2628 -83.3422 250° West 227 261 11,100 -98 Descending Cleveland Center
06:25PM 42.2553 -83.3825 256° West 240 276 11,100 -97 Level Cleveland Center
06:26PM 42.2425 -83.4289 250° West 237 273 11,000 -581 Descending Cleveland Center
06:26PM 42.2383 -83.4647 261° West 203 234 10,500 -1,161 Descending Cleveland Center
06:27PM 42.2219 -83.4994 237° Southwest 210 242 9,800 -1,279 Descending Cleveland Center
06:27PM 42.2006 -83.5186 214° Southwest 200 230 9,200 -1,258 Descending Cleveland Center
06:28PM 42.1714 -83.5336 201° Southwest 204 235 8,500 -1,082 Descending Cleveland Center
06:28PM 42.1497 -83.5506 210° Southwest 204 235 8,100 -387 Descending Cleveland Center
06:29PM 42.1169 -83.5697 203° Southwest 206 237 8,100 -98 Level Cleveland Center
06:29PM 42.0986 -83.5856 213° Southwest 206 237 8,000  Descending Cleveland Center
06:30PM 42.0664 -83.6033 202° Southwest 203 234 8,100 98 Climbing Cleveland Center
06:30PM 42.0456 -83.6200 211° Southwest 202 232 8,100 -97 Level Cleveland Center
06:31PM 42.0161 -83.6383 205° Southwest 204 235 8,000  Descending Cleveland Center
06:31PM 41.9961 -83.6608 220° Southwest 206 237 8,100  Climbing Cleveland Center
06:32PM 41.9619 -83.6931 215° Southwest 203 234 8,000  Descending Cleveland Center
06:32PM 41.9506 -83.7075 223° Southwest 206 237 8,100 -97 Climbing Cleveland Center
06:33PM 41.9169 -83.7364 213° Southwest 198 228 7,900 -393 Descending Cleveland Center
06:33PM 41.9022 -83.7342 174° South 176 203 7,700 -968 Descending Cleveland Center
06:34PM 41.8753 -83.7025 139° Southeast 201 231 6,900 -1,082 Descending Cleveland Center
06:34PM 41.8772 -83.6800 83° East 196 226 6,600 -774 Descending Cleveland Center
06:35PM 41.8903 -83.6364 68° East 195 224 6,100 -492 Descending Cleveland Center
06:35PM 41.9033 -83.6164 49° Northeast 194 223 6,100 -95 Level Cleveland Center
06:36PM 41.9261 -83.5817 49° Northeast 193 222 6,000  Descending Cleveland Center
06:36PM 41.9447 -83.5717 22° Northeast 193 222 6,100 -290 Climbing Cleveland Center
06:37PM 41.9814 -83.5431 30° Northeast 189 217 5,700 -689 Descending Cleveland Center
06:37PM 41.9936 -83.5367 21° North 192 221 5,400 -1,065 Descending Cleveland Center
06:38PM 42.0289 -83.5089 30° Northeast 192 221 4,600 -984 Descending Cleveland Center
06:38PM 42.0381 -83.5036 23° Northeast 179 206 4,400 -968 Descending Cleveland Center
06:39PM 42.0719 -83.4778 30° Northeast 182 209 3,600 -984 Descending Cleveland Center
06:39PM 42.0847 -83.4711 21° North 182 209 3,400 -968 Descending Cleveland Center
06:40PM 42.1161 -83.4461 31° Northeast 180 207 2,600 -968 Descending Cleveland Center
06:40PM 42.1269 -83.4403 22° Northeast 163 188 2,400 -677 Descending Cleveland Center
06:41PM 42.1506 -83.4197 33° Northeast 152 175 1,900 -689 Descending Cleveland Center
06:41PM 42.1625 -83.4144 18° North 135 155 1,700 -774 Descending Cleveland Center
06:42PM 42.1833 -83.3958 34° Northeast 138 159 1,100 -787 Descending Cleveland Center
06:42PM 42.1961 -83.3883 24° Northeast 136 157 900 -194 Descending Cleveland Center
06:43PM 42.2233 -83.3664 31° Northeast 138 159 900  Level Cleveland Center

Login

Don't have an account? Register now (free) for customized features, flight alerts, and more!